Content
SEND FEEDBACK

Daily
Averages
Monthly
Summary
Turkmenistan

ASHGABAT, TURKMENISTAN


Home > Asia > Turkmenistan
Elevation: 236 meters     Latitude: 37 58N     Longitude: 058 20E

WEATHER
 
SELECT A DAY
Number of Records: 177,237;   Date Range: 3/15/97 - 7/26/14
 
SHARE

PRINT THIS DATA

[ ← Previous Day ]
WEATHER ALMANAC - 21 SEPTEMBER, 2013
[ Next Day → ]
[ °F ]   °C
Weather ElementAverageHighLow
Temperature29.4 °C36 °C (3:00 pm)22 °C (5:00 am)
Dewpoint12.2 °C15.6 °C (2:00 am)9 °C (1:00 pm)
Humidity35.3 %57 % (5:00 am)19 % (4:00 pm)
Barometer1008.8 hPa1010.2 hPa (8:00 am)1007.1 hPa (5:00 pm)
Wind Speed5.8 km/h14.3 km/h (2:00 pm)
Weather ElementAverage
Visibility9.7 km
Wind DirectionSSE (152.6 °)

Weather ElementTotal
Precipitation---
Cooling Degree Days10.7 (Base 18.3)
Growing Degree Days19 (Base 10)
Averaged from 28 records on 21 September, 2013
WEATHER CONDITIONS BREAKOUT
WIND DIRECTION BREAKOUT
WEATHER BY HOUR - 21 SEPTEMBER, 2013
[ °F ]   °C
Local TimeTemperatureDewpointHumidityBarometerVisibilityWind DirectionWind SpeedGust SpeedPrecipitationEventsConditions
1:00 AM24 °C14 °C53 %1008.1 hPa10 kmCalmClear
2:00 AM22.8 °C15.6 °C54 %1008.1 hPa9.7 kmWSW (250°)7.2 km/h
2:00 AM24 °C13 °C50 %1008.1 hPa6.9 kmWSW (250°)7.2 km/hClear
3:00 AM23 °C13 °C53 %1008.1 hPa10 kmCalmClear
4:00 AM23 °C13 °C53 %1008.1 hPa10 kmWNW (300°)7.2 km/hClear
5:00 AM22 °C13 °C57 %1008.1 hPa10 kmSW (230°)7.2 km/hClear
6:00 AM22 °C13 °C57 %1009.1 hPa10 kmSW (230°)7.2 km/hClear
7:00 AM22 °C12 °C53 %1009.1 hPa10 kmVariable3.5 km/hClear
8:00 AM23 °C13 °C53 %1010.2 hPa10 kmSSW (210°)7.2 km/hClear
9:00 AM28 °C13 °C39 %1010.2 hPa10 kmCalmClear
10:00 AM31 °C12 °C31 %1010.2 hPa10 kmWest (270°)3.5 km/hPartly Cloudy
11:00 AM33 °C11 °C26 %1010.2 hPa10 kmVariable3.5 km/hScattered Clouds
12:00 PM34 °C11 °C24 %1010.2 hPa10 kmENE (70°)10.8 km/hMostly Cloudy
1:00 PM34 °C9 °C21 %1009.1 hPa10 kmNE (50°)7.2 km/hMostly Cloudy
2:00 PM35 °C10 °C22 %1009.1 hPa10 kmNW (310°)14.3 km/hMostly Cloudy
2:00 PM34.4 °C15.6 °C22 %1008.5 hPa9.7 kmNNW (330°)14.3 km/hScattered Clouds
3:00 PM36 °C10 °C20 %1008.1 hPa10 kmWNW (300°)7.2 km/hMostly Cloudy
4:00 PM36 °C9 °C19 %1008.1 hPa10 kmVariable3.5 km/hMostly Cloudy
5:00 PM35.6 °C15 °C20 %1007.1 hPa9.7 kmNNE (20°)3.5 km/hPartly Cloudy
5:00 PM36 °C9 °C19 %1008.1 hPa10 kmNNW (340°)7.2 km/hMostly Cloudy
6:00 PM36 °C9 °C19 %1008.1 hPa10 kmCalmScattered Clouds
7:00 PM35 °C10 °C22 %1008.1 hPa10 kmCalmMostly Cloudy
8:00 PM30.6 °C15 °C29 %1007.8 hPa9.7 kmCalmPartly Cloudy
8:00 PM31 °C12 °C31 %1009.1 hPa10 kmCalmMostly Cloudy
9:00 PM29 °C13 °C37 %1009.1 hPa6.9 kmSSW (200°)7.2 km/hMostly Cloudy
10:00 PM29 °C11 °C33 %1009.1 hPa10 kmWSW (250°)10.8 km/hScattered Clouds
11:00 PM26.7 °C15 °C38 %1008.5 hPa9.7 kmWest (260°)10.8 km/hScattered Clouds
11:00 PM29 °C11 °C33 %1009.1 hPa10 kmWSW (250°)10.8 km/hPartly Cloudy
Hourly data recorded from UTAA, located 0 kilometers away from Ashgabat, Turkmenistan







STORIES FROM OUR PARTNERS